User: anonymous   Login
Location: Bieujac
(44.5398°N, 0.1549°W)
Time: 10:35:48
(UTC+00:00)
Language:

STARLINK - Orbit

View from above orbital plane
View from above orbital plane
View from above satellite
View from above satellite

Ground track
Ground track

The orbit data is extracted from the following two-line orbital elements,

1 44235U 19029A   20018.58334491 -.00002479 +00000-0 -12511-3 0  9994
2 44235 053.0018 174.9626 0001162 088.9418 196.6402 15.12145830037389
Epoch (UTC): 18 January 2020 14:00:01
Eccentricity: 0.0001162
inclination: 53.0018°
perigee height: 529 km
apogee height: 530 km
right ascension of ascending node: 174.9626°
argument of perigee: 88.9418°
revolutions per day: 15.12145830
mean anomaly at epoch: 196.6402°
orbit number at epoch: 3738

The dashed part of the orbit path shows where the satellite is in the earth's shadow,  

DLR